Tracking 28518 objects as of 1-Mar-2024
HD Live streaming from Space Station
objects crossing your sky now

STARLINK-30924

Track STARLINK-30924 now!
10-day predictions
STARLINK-30924 is classified as:


NORAD ID: 58412
Int'l Code: 2023-180L
Perigee: 521.9 km
Apogee: 525.3 km
Inclination: 43.0 °
Period: 95.0 minutes
Semi major axis: 6894 km
RCS: Unknown
Launch date: November 22, 2023
Source: United States (US)
Launch site: AIR FORCE EASTERN TEST RANGE (AFETR)
Your satellite tracking list
Your tracking list is empty




NASA's NSSDC Master Catalog

Two Line Element Set (TLE):
1 58412U 23180L   24060.53118351  .00034513  00000-0  17437-2 0  9993
2 58412  42.9995 110.9367 0002487 108.6254 251.4863 15.16484409 16417
Source of the keplerian elements: AFSPC